Regional Weather Roundup
Issued by NWS Nashville, TN

Home | Current Version | Previous Version | Text Only | Print | Product List | Glossary On
Versions: 1 2 3 4 5 6 7 8 9 10 11 12 13 14 15 16 17 18 19 20 21 22 23 24 25 26 27 28 29 30 31 32 33 34 35 36 37 38 39 40 41 42 43 44 45 46 47 48 49 50
000
ASUS44 KOHX 290815
RWROHX
MIDDLE TENNESSEE HOURLY WEATHER ROUNDUP
NATIONAL WEATHER SERVICE NASHVILLE TN
300 AM CDT FRI AUG 29 2014

NOTE: "FAIR" INDICATES FEW OR NO CLOUDS BELOW 12,000 FEET WITH
NO SIGNIFICANT WEATHER AND/OR OBSTRUCTIONS TO VISIBILITY.

* THESE REPORTS ARE NOT UNDER NWS QUALITY CONTROL AND MAY NOT
  REPORT WEATHER SUCH AS PRECIPITATION AND FOG.


TNZ005>011-023>034-057-059-062>066-078-080-290900
...NORTHERN MIDDLE TENNESSEE...

CITY           SKY/WX    TMP DP  RH WIND       PRES   REMARKS
CLARKSVILLE    CLEAR     72  69  90 E3        29.99S FOG
CROSSVILLE     CLEAR     72  65  78 SW3       30.09S HAZE
GALLATIN         N/A     74  73  96 CALM      30.01F
DICKSON        CLEAR     70  70 100 CALM      30.00F
LEBANON        CLEAR     72  70  93 CALM      29.99F
LIVINGSTON     CLEAR     71  69  93 CALM      30.05
NASHVILLE      PTCLDY    73  72  96 CALM      30.01S
PORTLAND       CLEAR     72  70  94 CALM      30.00F
SMYRNA         CLEAR     73  73 100 CALM      30.01F FOG
SPARTA         CLEAR     66  66 100 CALM      30.03S
$$
TNZ056-058-060-061-075>077-079-093>097-290900
...SOUTHERN MIDDLE TENNESSEE...

CITY           SKY/WX    TMP DP  RH WIND       PRES   REMARKS
COLUMBIA       CLEAR     70  70 100 CALM      30.00S
FAYETTEVILLE   CLEAR     68  64  88 CALM      30.03S
LEWISBURG      CLEAR     66  65  97 CALM      30.01S
MCMINNVILLE      N/A     68  68 100 CALM      30.04S
MURFREESBORO   CLEAR     73  70  91 CALM      30.00F
SHELBYVILLE    CLEAR     72  70  94 CALM      30.03S
TULLAHOMA      CLEAR     66  63  88 CALM      30.05S
WINCHESTER     CLEAR     68  66  94 CALM      30.04S
$$


...KEY TO REMARKS...
VSB - VISIBILITY IN MILES
WCI - WIND CHILL INDEX
HX  - HEAT INDEX



USA.gov is the U.S. government's official web portal to all federal, state and local government web resources and services.